Showing default

QIANFAN-104, 66046

Orbit data source: Space-Track

QIANFAN-104, 66046 is a Chinese payload satellite in LEO that was launched on Fri, 17 Oct 2025 UTC via a CHANG ZHENG 6A launch vehicle from the Taiyaun Space Center, China (TSC). Payload-class satellites include a variety of spacecraft equipped with specific instruments for various scientific and technological missions. These include communications satellites like Starlink; space stations such as the ISS; scientific satellites like the Hubble; Earth observation satellites from companies like Planet Labs, Umbra, and HawkEye 360; GPS; miniature CubeSats for education and research; and military/defense satellites.

Loading next visibility...
Identifier
66046, 2025-233P
Orbit
LEO
Country
Flag of CNCN / PRC
Related business
Manufacturer
SECM
Mission
Operational Commercial Communications
Bus & Motor
QIANFAN, Unknown motor
Mass
267 kg wet, ~267 kg dry
Launch date (UTC)
2025-10-17 (7 months ago)
Launch vehicle
CHANG ZHENG 6A
Launch site
Taiyaun Space Center, China (TSC)
Object type
Payload
Rocket body
Debris
Shape & HBR
Box + 1 Pan, 14.5 m
Radar Cross Section
13.200 m²

Expand to show TLE details & history
Last TLE update: 7 hours ago

TLE from 7 hours ago
0 QIANFAN-104
1 66046U 25233P   26130.19252345  .00000048  00000-0  55500-4 0  9991
2 66046  89.0030  46.9301 0002229  75.8108 284.3290 13.51005434 28106
Epoch: 2026-05-10T04:37Z
TLE epoch observation values (Epoch: 2026-05-10T04:37:14.026Z)
Latitude
-0.00007°
Longitude
109.62253°
Altitude
1,071.104 km
Speed
7.317 km/s
True Right ascension
03h 07m 43s
True Declination
0° 00' 00"
Sunlit
Object was in daylight at epoch
Visualization orbit readout
Latitude
Unknown
Longitude
Unknown
Altitude
Unknown
Speed
Unknown
Apparent Right ascension
Unknown
Apparent Declination
Unknown
Sunlit
N/A
Visualization observer readout
Local Sidereal Time
19:44:32
Azimuth
Unknown
Elevation
Unknown
Doppler factor
Unknown
Orbital elements
Apogee altitude
1,067.272 km
Perigee altitude
1,063.953 km
Semi-major axis
7,443.75 km
Eccentricity
0.00022
Inclination
89.003°
RAAN
46.9301°
Arg. of periapsis
75.8108°
True anomaly
284.30425°
Mean anomaly
284.329°
Eccentric anomaly
284.31663°
Mean motion
3.37952 °/min
Orbital period
106.52 mins
BSTAR
0.0000555
Loading maneuver chart data...
Computing Atmospheric mass density...
Loading historical data...
Loading historical data...
Loading historical data...
Loading historical data...
Loading historical data...
Loading historical data...
Loading historical data...

Documentation

Showing up to 5 results
|